Location: Hains Lake
(37.8540°N, 99.8578°W)
Time: 02:54:38
(UTC+00:00)

STARLINK 1047 - Pass Details

Date: 11 December 2019
Orbit: 433 x 435 km, 53.0° (Epoch: 17 January)

Event Time Altitude Azimuth Distance (km) Brightness Sun altitude
Exits shadow 12:48:20 16° 275° (W) 1,157 4.7 -10.9°
Maximum altitude 12:50:07 25° 230° (SW) 872 4.4 -10.6°
Drops below altitude 10° 12:52:52 10° 173° (S) 1,471 6.2 -10.1°
Sets 12:55:10 0° 159° (SSE) 2,331 7.5 -9.7°
